,

(GMT )
Semmerzake

Weather History for EBMT - March, 2014

Change the Weather History Date:

Monday, March 17, 2014

  Actual Average Record
Temperature  
Mean Temperature 50 °F -  
Max Temperature 56 °F - - ()
Min Temperature 43 °F - - ()
Degree Days  
Heating Degree Days 16    
Moisture  
Dew Point 43 °F    
Average Humidity 74    
Maximum Humidity 94    
Minimum Humidity 51    
Precipitation  
Precipitation 0.00 in - - ()
Sea Level Pressure  
Sea Level Pressure 30.18 in    
Wind  
Wind Speed 4 mph ()    
Max Wind Speed 9 mph    
Max Gust Speed -    
Visibility 9.2 miles    
Events      
T = Trace of Precipitation, MM = Missing Value Source: Averaged Metar Reports

Daily Weather History Graph

Daily Weather History Graph

Search for Another Location

Airport or City:

Trip Planner

Search our weather history database for the weather conditions in past years. The results will help you decide how hot, cold, wet, or windy it might be!

Date:

Astronomy

Mar. 17, 2014 Rise Set
Actual Time 6:54 AM CET 6:52 PM CET
Civil Twilight 6:22 AM CET 7:25 PM CET
Nautical Twilight 5:43 AM CET 8:04 PM CET
Astronomical Twilight 5:03 AM CET 8:44 PM CET
Moon 8:04 PM CET (3/17) 6:55 AM CET (3/17)
Length of Visible Light 13h 03m
Length of Day
11h 57m
Waxing Gibbous, 99% of the Moon is Illuminated
Mar 17
Waxing Gibbous
Mar 24
Last Quarter
Mar 30
New
Apr 7
First Quarter
Apr 15
Full

Hourly Weather History & Observations

Time (CET) Temp. Dew Point Humidity Pressure Visibility Wind Dir Wind Speed Gust Speed Precip Events Conditions
12:00 AM 47 °F 43 °F 79% 30.20 in 10 mi SW 4.5 mph - -  
1:00 AM 46 °F 43 °F 84% 30.19 in 11 mi SW 4.5 mph - -  
2:00 AM 45 °F 42 °F 85% 30.19 in 9 mi SSW 4.5 mph - -  
3:00 AM 45 °F 42 °F 87% 30.19 in 7 mi SSW 6.7 mph - -  
4:00 AM 44 °F 42 °F 90% 30.18 in 7 mi SSW 4.5 mph - -  
6:00 AM 45 °F 44 °F 92% 30.18 in 4 mi 2.2 mph - -   Mostly Cloudy
7:00 AM 46 °F 44 °F 91% 30.19 in 4 mi SW 4.5 mph - -   Mostly Cloudy
8:00 AM 46 °F 45 °F 94% 30.20 in 3 mi 4.5 mph - -   Mist
9:00 AM 47 °F 46 °F 92% 30.21 in 3 mi 2.2 mph - -   Mist
10:00 AM 50 °F 46 °F 82% 30.21 in 3 mi WSW 4.5 mph - -   Mist
11:00 AM 51 °F 46 °F 75% 30.20 in 4 mi WSW 4.5 mph - -   Mostly Cloudy
12:00 PM 54 °F 44 °F 59% 30.19 in 7 mi West 8.9 mph - -   Mostly Cloudy
1:00 PM 53 °F 41 °F 54% 30.19 in 16 mi West 8.9 mph - -   Mostly Cloudy
2:00 PM 55 °F 42 °F 51% 30.18 in 16 mi West 8.9 mph - -   Mostly Cloudy
3:00 PM 55 °F 43 °F 53% 30.17 in 16 mi WNW 6.7 mph - -   Mostly Cloudy
4:00 PM 55 °F 42 °F 52% 30.17 in 16 mi West 6.7 mph - -   Mostly Cloudy
5:00 PM 54 °F 42 °F 53% 30.16 in 16 mi WNW 8.9 mph - -   Mostly Cloudy
6:00 PM 53 °F 42 °F 57% 30.15 in 22 mi 2.2 mph - -   Partly Cloudy
7:00 PM 52 °F 42 °F 60% 30.15 in 19 mi 2.2 mph - -   Partly Cloudy
8:00 PM 51 °F 43 °F 65% 30.15 in 19 mi 2.2 mph - -   Scattered Clouds
9:00 PM 51 °F 46 °F 75% 30.15 in 6 mi WSW 8.9 mph - -   Scattered Clouds
10:00 PM 48 °F 45 °F 84% 30.15 in 4 mi SW 4.5 mph - -   Scattered Clouds
11:00 PM 48 °F 45 °F 87% 30.14 in 3 mi SSW 4.5 mph - -   Partly Cloudy